Notices

What's New in latest Release from April 7th, 2021:

- Updated Glossary, including Speed of Maximum Gust, and Total Hourly Precipitation

- Updated national and regional climate services offices contacts and prices information

- Addition of station inventory lists for 1981-2010, 1971-2000, and 1961-1990 Normals.

If you haven't already, please take our survey and provide feedback about our website: https://eccc.sondage-survey.ca/f/LanguageSelection.aspx?s=442ca660-fcf1-47c0-95a9-59707d6fd709

Hourly Data Report for January 23, 2012

HALIFAX STANFIELD INT'L A
NOVA SCOTIA

44°52'48.060" N
63°30'00.050" W
145.40 m
8202250
71395
YHZ

Download Data

Hourly Data (January 2012)
Hourly Data Report for January 23, 2012
TIME
LST
Temp Definition
°C
Dew Point Definition
°C
Rel Hum Definition
%
Precip. Amount Definition
mm

Wind Dir Definition
10's deg

Wind Spd Definition
km/h
Visibility Definition
km
Stn Press Definition
kPa
Hmdx Definition


Wind Chill Definition


Weather Definition


00:00 -14.3 -17.8 75   18 6 24.1 101.64   -18 Clear
01:00 -14.2 -17.6 75   19 4 24.1 101.63   -17 Clear
02:00 -14.1 -17.8 74   18 6 24.1 101.62   -18 Clear
03:00 -14.4 -17.8 75   20 7 24.1 101.65   -19 Clear
04:00 -14.4 -17.8 75   20 7 24.1 101.62   -19 Clear
05:00 -14.0 -17.2 77   21 11 24.1 101.62   -20 Clear
06:00 -13.7 -16.5 79   26 7 24.1 101.61   -18 Clear
07:00 -13.3 -16.3 78   19 7 24.1 101.59   -18 Mainly Clear
08:00 -12.6 -14.7 84   20 6 22.5 101.57   -17 Mostly Cloudy
09:00 -9.7 -12.3 81   21 7 24.1 101.59   -14 Mostly Cloudy
10:00 -6.0 -9.7 75   20 11 24.1 101.57   -11 Mostly Cloudy
11:00 -4.9 -9.2 72   15 9 24.1 101.52   -9 Mainly Clear
12:00 -2.8 -7.1 72   16 13 24.1 101.42   -7 Mainly Clear
13:00 -1.4 -6.1 70   18 19 24.1 101.34   -7 Mainly Clear
14:00 -0.1 -5.4 67   17 19 24.1 101.26   -5 Mainly Clear
15:00 -0.7 -5.4 70   19 20 24.1 101.32   -6 Mostly Cloudy
16:00 -0.9 -4.2 78   20 22 24.1 101.28   -7 Mostly Cloudy
17:00 -1.6 -3.9 84   18 17 24.1 101.26   -7 Mostly Cloudy
18:00 -1.9 -3.3 90   16 22 24.1 101.20   -8 Mainly Clear
19:00 -2.3 -3.2 94   16 20 24.1 101.17   -8 Mostly Cloudy
20:00 -2.1 -2.8 95   14 19 24.1 101.08   -8 Mostly Cloudy
21:00 -1.2 -1.8 96   13 15 24.1 101.03   -6 Mostly Cloudy
22:00 -0.8 -1.3 96   14 15 24.1 100.95   -5 Cloudy
23:00 0.7 0.2 96   15 22 24.1 100.87     Cloudy

Notes on Data Quality.

Legend

  • E = Estimated
  • M = Missing
  • NA = Not Available*
  • [empty] = Indicates an unobserved value
Date modified: